Regional Weather Roundup
Issued by NWS

Home | Current Version | Previous Version | Text Only | Print | Product List | Glossary On
Versions: 1 2 3 4 5 6 7 8 9 10 11 12 13 14 15 16 17 18 19 20 21 22 23 24 25 26 27 28 29 30 31 32 33 34 35 36 37 38 39 40 41 42 43 44 45 46 47 48 49 50
000
ASUS45 KREV 241110
RWRNV
NEVADA REGIONAL WEATHER ROUNDUP
NATIONAL WEATHER SERVICE RENO NV
400 AM PDT MON JUL 24 2017

NOTE: "FAIR" INDICATES FEW OR NO CLOUDS BELOW 12,000 FEET WITH NO
SIGNIFICANT WEATHER AND/OR OBSTRUCTIONS TO VISIBILITY.

NVZ001-003-004-241200-
WESTERN NEVADA

CITY           SKY/WX    TMP DP  RH WIND       PRES   REMARKS
RENO           MOCLDY    73  46  38 S5        30.01R
CARSON CITY    FAIR      68  46  45 SE3       30.03S
MINDEN         MOCLDY    63  52  67 SW6       30.04R
FALLON         MOCLDY    69  47  45 NE3       29.95S
LOVELOCK       MOCLDY    67  52  58 S7        29.96R
HAWTHORNE      CLOUDY    79  50  36 SE5       29.98S
$$

NVZ002-CAZ072-073-241200-
NORTHERN AND CENTRAL SIERRA

CITY           SKY/WX    TMP DP  RH WIND       PRES   REMARKS
S. LAKE TAHOE  MOCLDY    57  47  69 CALM      30.14F
TRUCKEE        MOCLDY    52  43  71 CALM      30.14S
SQUAW VLY 8000   N/A     63  41  45 S10         N/A
SUSANVILLE     CLEAR     61  37  41 CALM      30.00F
MAMMOTH LAKES  FAIR      60  44  57 S3        30.22R
BRIDGEPORT     FAIR      59  41  51 CALM      30.16S
$$

NVZ030-031-036-241200-
NORTHERN NEVADA

CITY           SKY/WX    TMP DP  RH WIND       PRES   REMARKS
ELKO           MOCLDY    67  44  43 CALM      30.07R
WINNEMUCCA     CLEAR     61  44  53 S7        29.98S
WENDOVER       MOCLDY    71  43  36 NW5       29.99S
$$

NVZ035-037-241200-
CENTRAL NEVADA

CITY           SKY/WX    TMP DP  RH WIND       PRES   REMARKS
ELY              N/A    N/A N/A N/A MISG      30.19S
EUREKA           N/A     56  42  59 SE8       30.14S
$$

NVZ013-014-241200-
SOUTH CENTRAL NEVADA

CITY           SKY/WX    TMP DP  RH WIND       PRES   REMARKS
TONOPAH        PTCLDY    67  51  56 CALM      30.10S
$$

NVZ017-020-022-241200-
SOUTHERN NEVADA

CITY           SKY/WX    TMP DP  RH WIND       PRES   REMARKS
LAS VEGAS      MOCLDY    88  59  37 E12       29.88S
N. LAS VEGAS   PTCLDY    86  60  41 E8        29.87F
NELLIS AFB     MOCLDY    80  69  70 NE12      29.86S
HENDERSON      MOCLDY    86  62  44 NW3       29.91S
MERCURY        PTCLDY    86  56  35 E18       29.90F
$$



USA.gov is the U.S. government's official web portal to all federal, state and local government web resources and services.